Regional Weather Roundup
Issued by NWS

Home | Current Version | Previous Version | Text Only | Print | Product List | Glossary On
Versions: 1 2 3 4 5 6 7 8 9 10 11 12 13 14 15 16 17 18 19 20 21 22 23 24 25 26 27 28 29 30 31 32 33 34 35 36 37 38 39 40 41 42 43 44 45 46 47 48 49 50
000
ASUS44 KOUN 021710
RWROK

WEATHER ROUNDUP FOR OKLAHOMA
NATIONAL WEATHER SERVICE NORMAN OK
1200 PM CDT THU OCT 02 2014

NOTE: "FAIR" INDICATES FEW OR NO CLOUDS BELOW 12,000 FEET WITH NO
      SIGNIFICANT WEATHER AND/OR OBSTRUCTIONS TO VISIBILITY.

OKZ001>007-009>012-014-015-017-021800-
NORTHWEST OKLAHOMA AND THE PANHANDLE

CITY           SKY/WX    TMP DP  RH WIND       PRES   REMARKS
GAGE           PTSUNNY   61  51  70 NW23G30   29.95R
ENID/WOODRING  MOSUNNY   73  61  64 N24G32    29.81R
$$

OKZ016-021>023-033>039-044-045-021800-
SOUTHWEST OKLAHOMA

CITY           SKY/WX    TMP DP  RH WIND       PRES   REMARKS
LAWTON/REGL    SUNNY     77  59  53 N14G22    29.81R
LAWTON/FT SILL SUNNY     77  60  55 N13G20    29.81R
FREDERICK      SUNNY     76  59  55 N20       29.82R
CLINTON        SUNNY     76  50  40 N25G31    29.88R
HOBART         SUNNY     77  53  43 NE26G32   29.85S
ALTUS AFB      SUNNY     78  55  44 N18       29.87R
$$

OKZ018>020-024>031-021800-
CENTRAL OKLAHOMA

CITY           SKY/WX    TMP DP  RH WIND       PRES   REMARKS
OKLAHOMA CITY  MOSUNNY   75  60  59 NW16      29.80S
OKC/WILEY POST PTSUNNY   76  61  59 NW14      29.80S
OKC/TINKER AFB PTSUNNY   74  62  64 NW20      29.78S
STILLWATER     PTSUNNY   76  66  71 NW15      29.77R
GUTHRIE        PTSUNNY   77  64  64 N9G18     29.80R
$$

OKZ008-013-054>072-021800-
NORTHEAST OKLAHOMA

CITY           SKY/WX    TMP DP  RH WIND       PRES   REMARKS
TULSA          LGT RAIN  75  65  70 S12       29.74R
TULSA/JONES    TSTM      71  66  84 SW5       29.76S
PONCA CITY     PTSUNNY   70  62  76 N20G28    29.79R
BARTLESVILLE   PTSUNNY   80  73  79 SW8       29.76R
MUSKOGEE       TSTM      76  73  91 W5        29.79F VSB 3/4
$$

OKZ032-040>043-046>053-073>077-021800-
SOUTH CENTRAL/SOUTHEAST OKLAHOMA

CITY           SKY/WX    TMP DP  RH WIND       PRES   REMARKS
ARDMORE/DWNTWN MOSUNNY   82  70  65 SW15G22   29.79F
MCALESTER      PTSUNNY   82  72  71 S10       29.81R
$$



USA.gov is the U.S. government's official web portal to all federal, state and local government web resources and services.